Change the Weather History Date:

Friday, January 18, 2013

  Actual Average Record
Temperature  
Mean Temperature 44 °F -  
Max Temperature 61 °F 30 °F 61 °F (2013)
Min Temperature 28 °F 11 °F -17 °F (1984)
Degree Days  
Heating Degree Days 20    
Moisture  
Dew Point 21 °F    
Average Humidity 49    
Maximum Humidity 75    
Minimum Humidity 17    
Precipitation  
Precipitation 0.00 in - - ()
Sea Level Pressure  
Sea Level Pressure 29.93 in    
Wind  
Wind Speed 10 mph (WSW)    
Max Wind Speed 20 mph    
Max Gust Speed 23 mph    
Visibility 10 miles    
Events      
Averages and records for this station are not official NWS values.
T = Trace of Precipitation, MM = Missing Value Source: NWS Daily Summary

Daily Weather History Graph

Daily Weather History Graph

Search for Another Location

Airport or City:

Trip Planner

Search our weather history database for the weather conditions in past years. The results will help you decide how hot, cold, wet, or windy it might be!

Date:

Astronomy

Jan. 18, 2013 Rise Set
Actual Time 7:59 AM CST 5:31 PM CST
Civil Twilight 7:29 AM CST 6:01 PM CST
Nautical Twilight 6:54 AM CST 6:36 PM CST
Astronomical Twilight 6:20 AM CST 7:10 PM CST
Moon 11:28 AM CST (1/18) 12:32 AM CST (1/18)
Length of Visible Light 10h 32m
Length of Day
9h 31m
Waxing Crescent, 47% of the Moon is Illuminated
Jan 18
Waxing Crescent
Jan 18
First Quarter
Jan 26
Full
Feb 3
Last Quarter
Feb 10
New

Hourly Weather History & Observations

Time (CST) Temp. Windchill Dew Point Humidity Pressure Visibility Wind Dir Wind Speed Gust Speed Precip Events Conditions
12:15 AM 32.0 °F 25.6 °F 24.4 °F 74% 30.13 in 10.0 mi SW 6.9 mph - N/A   Clear
12:35 AM 32.0 °F 25.6 °F 24.8 °F 75% 30.12 in 10.0 mi SW 6.9 mph - N/A   Clear
12:55 AM 32.0 °F 24.2 °F 24.4 °F 74% 30.10 in 10.0 mi SSW 9.2 mph - N/A   Clear
1:15 AM 32.0 °F 24.2 °F 24.6 °F 74% 30.09 in 10.0 mi SW 9.2 mph - N/A   Clear
1:35 AM 32.0 °F 25.6 °F 24.4 °F 74% 30.08 in 10.0 mi SW 6.9 mph - N/A   Clear
1:55 AM 32.5 °F 25.5 °F 24.6 °F 73% 30.07 in 10.0 mi SW 8.1 mph - N/A   Clear
2:15 AM 32.0 °F 24.2 °F 24.1 °F 73% 30.06 in 10.0 mi SW 9.2 mph - N/A   Clear
2:35 AM 32.2 °F 24.4 °F 24.1 °F 72% 30.05 in 10.0 mi SW 9.2 mph - N/A   Clear
2:55 AM 32.2 °F 24.4 °F 23.9 °F 72% 30.04 in 10.0 mi SW 9.2 mph - N/A   Clear
3:15 AM 32.5 °F 23.7 °F 23.9 °F 70% 30.03 in 10.0 mi SW 11.5 mph - N/A   Clear
3:35 AM 34.9 °F 26.2 °F 24.4 °F 66% 30.02 in 10.0 mi SW 12.7 mph - N/A   Clear
3:55 AM 35.2 °F 26.2 °F 24.1 °F 64% 30.00 in 10.0 mi SW 13.8 mph - N/A   Clear
4:15 AM 34.5 °F 25.7 °F 23.9 °F 65% 30.00 in 10.0 mi SW 12.7 mph - N/A   Clear
4:35 AM 33.6 °F 24.6 °F 23.9 °F 68% 29.97 in 10.0 mi SW 12.7 mph - N/A   Clear
4:55 AM 34.2 °F 25.2 °F 24.3 °F 67% 29.97 in 10.0 mi SW 12.7 mph - N/A   Clear
5:15 AM 34.2 °F 26.8 °F 24.3 °F 67% 29.98 in 10.0 mi WSW 9.2 mph - N/A   Clear
5:35 AM 34.7 °F 25.5 °F 24.4 °F 66% 29.96 in 10.0 mi SW 13.8 mph - N/A   Clear
5:55 AM 34.5 °F 26.2 °F 24.4 °F 67% 29.96 in 10.0 mi WSW 11.5 mph - N/A   Clear
6:15 AM 33.3 °F 26.4 °F 24.1 °F 69% 29.95 in 10.0 mi SW 8.1 mph - N/A   Clear
6:35 AM 32.4 °F 25.3 °F 23.9 °F 71% 29.95 in 10.0 mi SW 8.1 mph - N/A   Clear
6:55 AM 31.3 °F 23.9 °F 23.4 °F 72% 29.94 in 10.0 mi SW 8.1 mph - N/A   Clear
7:15 AM 31.1 °F 23.7 °F 23.0 °F 72% 29.93 in 10.0 mi SW 8.1 mph - N/A   Clear
7:35 AM 28.9 °F 22.8 °F 21.9 °F 75% 29.93 in 10.0 mi WSW 5.8 mph - N/A   Clear
7:55 AM 29.8 °F 23.0 °F 21.7 °F 72% 29.93 in 10.0 mi WSW 6.9 mph - N/A   Clear
8:15 AM 32.0 °F 24.2 °F 22.1 °F 67% 29.93 in 10.0 mi WSW 9.2 mph - N/A   Clear
8:35 AM 32.5 °F 24.2 °F 22.5 °F 66% 29.93 in 10.0 mi WSW 10.4 mph - N/A   Clear
8:55 AM 34.0 °F 26.0 °F 22.8 °F 64% 29.93 in 10.0 mi West 10.4 mph - N/A   Clear
9:15 AM 35.8 °F 26.9 °F 22.5 °F 58% 29.93 in 10.0 mi WSW 13.8 mph - N/A   Clear
9:35 AM 38.1 °F 30.7 °F 22.6 °F 54% 29.94 in 10.0 mi West 11.5 mph - N/A   Clear
9:55 AM 40.3 °F 34.4 °F 22.8 °F 50% 29.95 in 10.0 mi West 9.2 mph - N/A   Clear
10:15 AM 42.8 °F 36.2 °F 22.8 °F 45% 29.96 in 10.0 mi West 12.7 mph - N/A   Clear
10:35 AM 45.7 °F 40.6 °F 21.7 °F 39% 29.96 in 10.0 mi West 10.4 mph - N/A   Clear
10:55 AM 48.2 °F - 20.7 °F 34% 29.95 in 10.0 mi West 12.7 mph - N/A   Clear
11:15 AM 51.1 °F - 20.7 °F 30% 29.95 in 10.0 mi West 12.7 mph - N/A   Clear
11:35 AM 53.4 °F - 19.9 °F 27% 29.94 in 10.0 mi WNW 12.7 mph - N/A   Clear
11:55 AM 55.9 °F - 19.0 °F 24% 29.93 in 10.0 mi WNW 15.0 mph 18.4 mph N/A   Clear
12:15 PM 56.7 °F - 18.7 °F 23% 29.91 in 10.0 mi WNW 12.7 mph - N/A   Clear
12:35 PM 57.2 °F - 18.1 °F 22% 29.90 in 10.0 mi WNW 15.0 mph - N/A   Clear
12:55 PM 58.5 °F - 18.0 °F 21% 29.89 in 10.0 mi WNW 16.1 mph - N/A   Clear
1:15 PM 59.0 °F - 18.0 °F 20% 29.88 in 10.0 mi WNW 13.8 mph 19.6 mph N/A   Clear
1:35 PM 59.7 °F - 18.0 °F 20% 29.88 in 10.0 mi WNW 15.0 mph 20.7 mph N/A   Clear
1:55 PM 59.9 °F - 17.2 °F 19% 29.88 in 10.0 mi WNW 18.4 mph 23.0 mph N/A   Clear
2:15 PM 60.6 °F - 17.8 °F 19% 29.88 in 10.0 mi WNW 13.8 mph 21.9 mph N/A   Clear
2:35 PM 60.8 °F - 16.7 °F 18% 29.88 in 10.0 mi West 15.0 mph - N/A   Clear
2:55 PM 61.3 °F - 16.0 °F 17% 29.88 in 10.0 mi West 18.4 mph 23.0 mph N/A   Clear
3:15 PM 61.0 °F - 16.0 °F 17% 29.87 in 10.0 mi WNW 19.6 mph - N/A   Clear
3:35 PM 60.8 °F - 15.8 °F 17% 29.87 in 10.0 mi West 13.8 mph - N/A   Clear
3:55 PM 60.1 °F - 15.3 °F 17% 29.88 in 10.0 mi WNW 11.5 mph - N/A   Clear
4:15 PM 59.2 °F - 15.8 °F 18% 29.88 in 10.0 mi West 9.2 mph - N/A   Clear
4:35 PM 57.7 °F - 15.6 °F 19% 29.88 in 10.0 mi West 8.1 mph - N/A   Clear
4:55 PM 54.9 °F - 16.7 °F 22% 29.88 in 10.0 mi West 8.1 mph - N/A   Clear
5:15 PM 51.8 °F - 17.2 °F 26% 29.88 in 10.0 mi West 10.4 mph - N/A   Clear
5:35 PM 47.8 °F - 16.7 °F 29% 29.89 in 10.0 mi West 8.1 mph - N/A   Clear
5:55 PM 46.6 °F - 17.4 °F 31% 29.89 in 10.0 mi West 6.9 mph - N/A   Clear
6:15 PM 45.5 °F 40.3 °F 19.6 °F 36% 29.89 in 10.0 mi West 10.4 mph - N/A   Clear
6:35 PM 44.6 °F 39.2 °F 20.7 °F 39% 29.89 in 10.0 mi West 10.4 mph - N/A   Clear
6:55 PM 46.4 °F 41.5 °F 21.0 °F 37% 29.89 in 10.0 mi West 10.4 mph - N/A   Clear
7:15 PM 45.1 °F 40.3 °F 21.0 °F 38% 29.89 in 10.0 mi WSW 9.2 mph - N/A   Clear
7:35 PM 43.5 °F 37.9 °F 21.0 °F 41% 29.89 in 10.0 mi WSW 10.4 mph - N/A   Clear
7:55 PM 41.4 °F 35.7 °F 21.2 °F 45% 29.89 in 10.0 mi WSW 9.2 mph - N/A   Clear
8:15 PM 41.5 °F 35.4 °F 21.9 °F 46% 29.89 in 10.0 mi West 10.4 mph - N/A   Clear
8:35 PM 40.3 °F 34.9 °F 21.7 °F 48% 29.89 in 10.0 mi WSW 8.1 mph - N/A   Clear
8:55 PM 38.7 °F 32.4 °F 22.3 °F 52% 29.88 in 10.0 mi WSW 9.2 mph - N/A   Clear
9:15 PM 38.7 °F 33.6 °F 22.8 °F 53% 29.88 in 10.0 mi WSW 6.9 mph - N/A   Clear
9:35 PM 36.3 °F 31.6 °F 22.1 °F 56% 29.87 in 10.0 mi WSW 5.8 mph - N/A   Clear
9:55 PM 36.3 °F 31.6 °F 22.8 °F 58% 29.87 in 10.0 mi WSW 5.8 mph - N/A   Clear
10:15 PM 36.5 °F 31.0 °F 22.6 °F 57% 29.86 in 10.0 mi WSW 6.9 mph - N/A   Clear
10:35 PM 35.8 °F 30.9 °F 22.6 °F 59% 29.86 in 10.0 mi West 5.8 mph - N/A   Clear
10:55 PM 37.0 °F 31.6 °F 23.0 °F 57% 29.85 in 10.0 mi WSW 6.9 mph - N/A   Clear
11:15 PM 35.4 °F 29.7 °F 21.9 °F 58% 29.86 in 10.0 mi WSW 6.9 mph - N/A   Clear
11:35 PM 37.4 °F 31.4 °F 22.8 °F 56% 29.85 in 10.0 mi WSW 8.1 mph - N/A   Clear
11:55 PM 37.0 °F 31.6 °F 22.6 °F 56% 29.85 in 10.0 mi WSW 6.9 mph - N/A   Clear